This is the latest recevied weather packets stored in our database for station/object K8GLX. If no packets are shown the sender has not sent any weather packets the latest 10 day(s).
| Time | Temp. | Humidity | Pressure | Rain* | Wind** | Luminosity | Snow |
|---|---|---|---|---|---|---|---|
| 1777742662 | 6.11° C | 61% | 1017.7 hPa | 0 mm | - | 728 W/m² | - |
| 1777742229 | 6.11° C | 60% | 1017.7 hPa | 0 mm | - | 1024 W/m² | - |
| 1777742062 | 6.11° C | 61% | 1017.7 hPa | 0 mm | - | 931 W/m² | - |
| 1777741629 | 5.56° C | 62% | 1017.9 hPa | 0 mm | - | 913 W/m² | - |
| 1777741334 | 6.11° C | 64% | 1017.8 hPa | 0 mm | - | 681 W/m² | - |
| 1777741029 | 5.56° C | 65% | 1017.8 hPa | 0 mm | - | 646 W/m² | - |
| 1777740735 | 5° C | 66% | 1017.9 hPa | 0 mm | - | 506 W/m² | - |
| 1777740548 | 5.56° C | 65% | 1017.8 hPa | 0 mm | - | 396 W/m² | - |
| 1777740262 | 5.56° C | 64% | 1017.9 hPa | 0 mm | - | 358 W/m² | - |
| 1777739829 | 6.11° C | 65% | 1017.8 hPa | 0 mm | - | 388 W/m² | - |
| 1777739535 | 6.11° C | 64% | 1017.8 hPa | 0 mm | - | 478 W/m² | - |
| 1777739229 | 6.11° C | 64% | 1017.8 hPa | 0 mm | - | 499 W/m² | - |
| 1777738935 | 5.56° C | 62% | 1017.8 hPa | 0 mm | - | 469 W/m² | - |
| 1777738629 | 5.56° C | 63% | 1017.8 hPa | 0 mm | - | 508 W/m² | - |
| 1777738461 | 5.56° C | 62% | 1017.8 hPa | 0 mm | - | 355 W/m² | - |
| 1777738029 | 5.56° C | 63% | 1017.9 hPa | 0 mm | - | 362 W/m² | - |
| 1777737735 | 5.56° C | 63% | 1017.9 hPa | 0 mm | - | 352 W/m² | - |
| 1777737429 | 5° C | 64% | 1017.9 hPa | 0 mm | - | 320 W/m² | - |
| 1777737134 | 5° C | 63% | 1017.6 hPa | 0 mm | - | 292 W/m² | - |
| 1777736828 | 5.56° C | 65% | 1017.9 hPa | 0 mm | - | 287 W/m² | - |
| 1777736535 | 5° C | 64% | 1017.6 hPa | 0 mm | - | 271 W/m² | - |
| 1777736229 | 5° C | 64% | 1017.6 hPa | 0 mm | - | 262 W/m² | - |
| 1777735934 | 5.56° C | 65% | 1017.8 hPa | 0 mm | - | 258 W/m² | - |
| 1777735628 | 5° C | 65% | 1017.7 hPa | 0 mm | - | 254 W/m² | - |
| 1777735335 | 5° C | 65% | 1017.6 hPa | 0 mm | - | 241 W/m² | - |
* Rain latest hour (hover to see other rain measurements)
** Current wind speed in m/s (hover to see current wind gust speed)